Palm Springs, CA

7:29 AM PST on February 08, 2016 (GMT -0800)
Palm Springs International

Weather History for KPSP - May, 2013

Change the Weather History Date:

Sunday, May 19, 2013

  Actual Average Record
Temperature  
Mean Temperature 84 °F 80 °F  
Max Temperature 101 °F 94 °F 113 °F (2008)
Min Temperature 67 °F 66 °F 49 °F (1933)
Degree Days  
Heating Degree Days 0 0  
Month to date heating degree days 0 0  
Since 1 July heating degree days 760 872  
Cooling Degree Days 19 15  
Month to date cooling degree days 303 241  
Year to date cooling degree days 833 561  
Growing Degree Days 34 (Base 50)    
Moisture  
Dew Point 45 °F    
Average Humidity 31    
Maximum Humidity 53    
Minimum Humidity 8    
Precipitation  
Precipitation 0.00 in 0.00 in 0.17 in (1940)
Month to date precipitation T 0.11  
Year to date precipitation 0.97 2.86  
Since 1 July precipitation 2.19  
Snow  
Snow 0.00 in - - ()
Month to date snowfall 0.0  
Year to date snowfall 0.0  
Since 1 July snowfall 0.0  
Snow Depth 0.00 in    
Sea Level Pressure  
Sea Level Pressure 29.79 in    
Wind  
Wind Speed 5 mph (NW)    
Max Wind Speed 16 mph    
Max Gust Speed 21 mph    
Visibility 10 miles    
Events      
T = Trace of Precipitation, MM = Missing Value Source: NWS Daily Summary

Daily Weather History Graph

Daily Weather History Graph

Search for Another Location

Airport or City:

Trip Planner

Search our weather history database for the weather conditions in past years. The results will help you decide how hot, cold, wet, or windy it might be!

Date:

Astronomy

May. 19, 2013 Rise Set
Actual Time 5:42 AM PDT 7:43 PM PDT
Civil Twilight 5:14 AM PDT 8:11 PM PDT
Nautical Twilight 4:40 AM PDT 8:45 PM PDT
Astronomical Twilight 4:04 AM PDT 9:21 PM PDT
Moon 2:07 PM PDT (5/19) 1:51 AM PDT (5/19)
Length of Visible Light 14h 57m
Length of Day
14h 01m
Waxing Gibbous, 66% of the Moon is Illuminated
May 19
Waxing Gibbous
May 24
Full
May 31
Last Quarter
Jun 8
New
Jun 16
First Quarter

Hourly Weather History & Observations

Time (PDT) Temp. Dew Point Humidity Pressure Visibility Wind Dir Wind Speed Gust Speed Precip Events Conditions
12:53 AM 73.9 °F 50.0 °F 43% 29.81 in 10.0 mi Variable 4.6 mph - N/A   Clear
1:53 AM 73.0 °F 51.1 °F 46% 29.81 in 10.0 mi Calm Calm - N/A   Clear
2:53 AM 72.0 °F 48.0 °F 43% 29.80 in 10.0 mi WNW 8.1 mph - N/A   Clear
3:53 AM 72.0 °F 48.9 °F 44% 29.81 in 10.0 mi WNW 6.9 mph - N/A   Clear
5:53 AM 69.1 °F 52.0 °F 54% 29.83 in 10.0 mi Calm Calm - N/A   Clear
6:53 AM 70.0 °F 52.0 °F 53% 29.85 in 10.0 mi SSW 3.5 mph - N/A   Clear
7:53 AM 73.0 °F 51.1 °F 46% 29.86 in 10.0 mi WNW 3.5 mph - N/A   Clear
8:53 AM 79.0 °F 48.0 °F 34% 29.86 in 10.0 mi NW 9.2 mph - N/A   Clear
9:53 AM 84.0 °F 46.0 °F 26% 29.85 in 10.0 mi NNW 6.9 mph - N/A   Clear
10:53 AM 87.1 °F 43.0 °F 21% 29.84 in 10.0 mi South 3.5 mph - N/A   Clear
1:53 PM 96.1 °F 30.0 °F 10% 29.77 in 10.0 mi East 3.5 mph - N/A   Clear
2:53 PM 98.1 °F 28.0 °F 8% 29.75 in 10.0 mi NE 4.6 mph - N/A   Clear
3:53 PM 99.0 °F 28.0 °F 8% 29.73 in 10.0 mi Variable 3.5 mph - N/A   Clear
4:53 PM 99.0 °F 37.9 °F 12% 29.71 in 10.0 mi WNW 8.1 mph - N/A   Clear
5:53 PM 98.1 °F 43.0 °F 15% 29.70 in 10.0 mi NW 13.8 mph - N/A   Clear
6:53 PM 93.9 °F 46.9 °F 20% 29.70 in 10.0 mi NW 19.6 mph - N/A   Clear
7:53 PM 90.0 °F 48.9 °F 24% 29.72 in 10.0 mi NW 16.1 mph 25.3 mph N/A   Clear
9:53 PM 84.0 °F 48.0 °F 28% 29.77 in 10.0 mi NW 12.7 mph - N/A   Clear
10:53 PM 82.0 °F 46.9 °F 29% 29.78 in 10.0 mi NW 10.4 mph - N/A   Clear
11:53 PM 81.0 °F 48.0 °F 31% 29.79 in 10.0 mi Calm Calm - N/A   Clear